sat.trackr.live / text

‹ back to catalog

FALCONSAT-10

NORAD 58291 · 2023-174AM

PAYLOAD ACTIVE UNKNOWN

§ Identity

Operator
Country
US
Launch date
2023-11-11
Launch site
AFWTR
Launch vehicle
Mass (kg)
RCS (m²)

External: N2YO · Heavens-Above · Gunter

§ Orbital elements

Epoch: 2026-09-21T18:04:09.598368Z

Period
94.21 min
Inclination
97.3729°
Eccentricity
0.0007755
Mean motion
15.28422092 rev/d
Perigee alt
475.2 km
Apogee alt
485.8 km
Semi-major
6,858.7 km
B*
1.1451e-4
RAAN
339.8369°
Arg perigee
194.9254°
Mean anomaly
165.1758°
Rev number
15,951

§ Raw data

FALCONSAT-101 58291U 23174AM  26264.75288887  .00003095  00000+0  11451-3 0  99962 58291  97.3729 339.8369 0007755 194.9254 165.1758 15.28422092159512

JSON: /api/v1/satellites/58291 · /tle

For live sub-satellite position, see the globe view (requires WebGL).

§ Visibility from observer

Set your observer location to see the next 7 days of passes ≥ 10°. The values pass through the URL so the page stays shareable.

No JS? Fill the form by hand. The geolocation button needs JavaScript.

§ Radio — SatNOGS DB

ModeDescriptionDownlinkUplink
FM S-band telemetry 2.288 GHz

1 transmitter · refreshed weekly from db.satnogs.org